Hourly Data Report for October 29, 2016

All times are specified in Local Standard Time (LST). Add 1 hour to adjust for Daylight Saving Time where and when it is observed.

FREDERICTON
NEW BRUNSWICK

45°52'08.000" N
66°32'14.000" W
20.70 m
8101505
71700
YFC

Download Data

Hourly Data (October 2016)
Hourly Data Report for October 29, 2016
Temp Definition
°C
Dew Point Temp Definition
°C
Rel Hum Definition
%
Wind Dir Definition
10's deg

Wind Spd Definition
km/h
Visibility Definition
km
Stn Press Definition
kPa
Hmdx Definition


Wind Chill Definition


Weather Definition


TIME
00:00 Legend Double Dagger 4.1 2.9 92 2 17 16.1 101.62     LegendNANA
01:00 Legend Double Dagger 4.4 3.4 93 2 17 16.1 101.55     Rain
02:00 Legend Double Dagger 4.7 3.5 92 35 18 16.1 101.51     LegendNANA
03:00 Legend Double Dagger 4.4 3.4 93 35 18 16.1 101.47     LegendNANA
04:00 Legend Double Dagger 4.7 3.6 93 35 21 16.1 101.44     Rain
05:00 Legend Double Dagger 4.8 3.9 94 35 18 6.4 101.44     Fog
06:00 Legend Double Dagger 5.1 4.4 95 36 15 14.5 101.38     LegendNANA
07:00 Legend Double Dagger 5.4 4.5 94 35 17 16.1 101.32     LegendNANA
08:00 Legend Double Dagger 5.8 4.8 93 35 15 16.1 101.32     LegendNANA
09:00 Legend Double Dagger 6.2 4.9 92 34 17 16.1 101.33     LegendNANA
10:00 Legend Double Dagger 7.0 5.6 91 1 17 14.5 101.25     LegendNANA
11:00 Legend Double Dagger 8.0 5.9 86 36 15 16.1 101.22     LegendNANA
12:00 Legend Double Dagger 8.4 6.1 85 1 17 16.1 101.10     LegendNANA
13:00 Legend Double Dagger 8.4 6.6 88 35 13 12.9 100.98     LegendNANA
14:00 Legend Double Dagger 7.6 6.6 93 33 15 4.0 100.95     Rain,Fog
15:00 Legend Double Dagger 8.1 6.2 88 34 11 16.1 100.92     LegendNANA
16:00 Legend Double Dagger 7.8 6.1 89 34 13 16.1 100.85     LegendNANA
17:00 Legend Double Dagger 7.6 5.9 89 35 9 16.1 100.77     LegendNANA
18:00 Legend Double Dagger 7.2 5.8 91 3 5 16.1 100.69     LegendNANA
19:00 Legend Double Dagger 6.6 6.0 96 21 4 16.1 100.65     Rain
20:00 Legend Double Dagger 6.5 6.1 97   0 16.1 100.57     LegendNANA
21:00 Legend Double Dagger 6.5 6.1 97 16 9 16.1 100.44     Rain
22:00 Legend Double Dagger 6.4 6.1 98 22 5 9.7 100.48     Moderate Rain,Fog
23:00 Legend Double Dagger 6.3 6.2 99 19 9 4.8 100.39     Moderate Rain,Fog

Notes on Data Quality.

Legend

  • E = Estimated
  • M = Missing
  • NA = Not Available
  • ‡ = Partner data that is not subject to review by the National Climate Archives
Date modified: